Simultaneous Nadir Overpasses (SNOs) Predictions

Prediction of SNOs between GOES-14 and AQUA Satellite Orbit:

Table of predicted SNOs for the next 14.0 days since TLE Epoch: 9/23/2023
Index Date Time (GOES-14) GOES-14 Lat,Lon AQUA Lat,Lon Distance(km) Time Diff (sec)
1 09/23/2023 20:53:56 -0.32,-108.52 0.47,-104.68 436.05 80
2 09/24/2023 09:11:56 0.30,-108.61 0.51,-109.70 123.32 80
3 09/26/2023 09:00:01 0.29,-108.60 -0.26,-106.14 281.00 80
4 09/26/2023 21:18:06 -0.27,-108.51 -0.86,-111.16 301.91 80
5 09/28/2023 21:06:10 -0.27,-108.51 -0.09,-107.60 103.43 80
6 09/29/2023 09:24:09 0.25,-108.60 1.10,-112.61 455.26 80
7 10/01/2023 09:09:32 0.26,-108.60 0.33,-109.04 49.32 80
8 10/03/2023 08:57:34 0.26,-108.60 -0.43,-105.47 356.86 80
9 10/03/2023 21:15:40 -0.24,-108.51 -0.64,-110.50 225.88 80
10 10/05/2023 21:03:41 -0.24,-108.50 0.13,-106.92 180.42 80
11 10/06/2023 09:21:38 0.22,-108.60 0.96,-111.91 378.12 80
